Time,TemperatureF,DewpointF,PressureIn,WindDirection,WindDirectionDegrees,WindSpeedMPH,WindSpeedGustMPH,Humidity,HourlyPrecipIn,Conditions,Clouds,dailyrainin,SoftwareType,DateUTC
2013-03-01 00:02:00,19.0,-99.9,-100.00,WNW,300,17.0,28.0,-999,-99.99,,,-99.99,,2013-03-01 07:02:00,
2013-03-01 00:12:00,19.0,-99.9,-100.00,WNW,302,17.0,24.0,-999,-99.99,,,-99.99,,2013-03-01 07:12:00,
2013-03-01 00:22:00,19.0,-99.9,-100.00,WNW,302,17.0,24.0,-999,-99.99,,,-99.99,,2013-03-01 07:22:00,
2013-03-01 00:33:00,19.0,-99.9,-100.00,WNW,302,17.0,24.0,-999,-99.99,,,-99.99,,2013-03-01 07:33:00,
2013-03-01 00:43:00,19.0,-99.9,-100.00,WNW,298,16.0,24.0,-999,-99.99,,,-99.99,,2013-03-01 07:43:00,
2013-03-01 00:52:00,19.0,-99.9,-100.00,WNW,298,16.0,24.0,-999,-99.99,,,-99.99,,2013-03-01 07:52:00,
2013-03-01 01:02:00,19.0,-99.9,-100.00,WNW,296,19.0,29.0,-999,-99.99,,,-99.99,,2013-03-01 08:02:00,
2013-03-01 01:12:00,19.0,-99.9,-100.00,WNW,296,19.0,29.0,-999,-99.99,,,-99.99,,2013-03-01 08:12:00,
2013-03-01 01:22:00,19.0,-99.9,-100.00,WNW,296,19.0,29.0,-999,-99.99,,,-99.99,,2013-03-01 08:22:00,
2013-03-01 01:33:00,19.0,-99.9,-100.00,WNW,296,19.0,29.0,-999,-99.99,,,-99.99,,2013-03-01 08:33:00,
2013-03-01 01:43:00,20.0,-99.9,-100.00,WNW,296,18.0,27.0,-999,-99.99,,,-99.99,,2013-03-01 08:43:00,
2013-03-01 01:53:00,20.0,-99.9,-100.00,WNW,296,18.0,27.0,-999,-99.99,,,-99.99,,2013-03-01 08:53:00,
2013-03-01 02:02:00,19.0,-99.9,-100.00,WNW,295,17.0,26.0,-999,-99.99,,,-99.99,,2013-03-01 09:02:00,
2013-03-01 02:12:00,19.0,-99.9,-100.00,WNW,297,16.0,24.0,-999,-99.99,,,-99.99,,2013-03-01 09:12:00,
2013-03-01 02:22:00,19.0,-99.9,-100.00,WNW,297,16.0,24.0,-999,-99.99,,,-99.99,,2013-03-01 09:22:00,
2013-03-01 02:32:00,19.0,-99.9,-100.00,WNW,297,16.0,24.0,-999,-99.99,,,-99.99,,2013-03-01 09:32:00,
2013-03-01 02:42:00,20.0,-99.9,-100.00,WNW,294,16.0,23.0,-999,-99.99,,,-99.99,,2013-03-01 09:42:00,
2013-03-01 02:53:00,20.0,-99.9,-100.00,WNW,294,16.0,23.0,-999,-99.99,,,-99.99,,2013-03-01 09:53:00,
2013-03-01 03:02:00,20.0,-99.9,-100.00,WNW,291,16.0,22.0,-999,-99.99,,,-99.99,,2013-03-01 10:02:00,
2013-03-01 03:12:00,20.0,-99.9,-100.00,WNW,292,16.0,23.0,-999,-99.99,,,-99.99,,2013-03-01 10:12:00,
2013-03-01 03:22:00,20.0,-99.9,-100.00,WNW,292,16.0,23.0,-999,-99.99,,,-99.99,,2013-03-01 10:22:00,
2013-03-01 03:32:00,20.0,-99.9,-100.00,WNW,292,16.0,23.0,-999,-99.99,,,-99.99,,2013-03-01 10:32:00,
2013-03-01 03:43:00,20.0,-99.9,-100.00,WNW,292,14.0,21.0,-999,-99.99,,,-99.99,,2013-03-01 10:43:00,
2013-03-01 03:53:00,20.0,-99.9,-100.00,WNW,291,14.0,18.0,-999,-99.99,,,-99.99,,2013-03-01 10:53:00,
2013-03-01 04:02:00,20.0,-99.9,-100.00,WNW,291,14.0,18.0,-999,-99.99,,,-99.99,,2013-03-01 11:02:00,
2013-03-01 04:12:00,20.0,-99.9,-100.00,WNW,292,14.0,20.0,-999,-99.99,,,-99.99,,2013-03-01 11:12:00,
2013-03-01 04:23:00,20.0,-99.9,-100.00,WNW,292,14.0,20.0,-999,-99.99,,,-99.99,,2013-03-01 11:23:00,
2013-03-01 04:32:00,20.0,-99.9,-100.00,WNW,292,14.0,20.0,-999,-99.99,,,-99.99,,2013-03-01 11:32:00,
2013-03-01 04:42:00,21.0,-99.9,-100.00,WNW,292,16.0,22.0,-999,-99.99,,,-99.99,,2013-03-01 11:42:00,
2013-03-01 04:53:00,21.0,-99.9,-100.00,WNW,292,16.0,22.0,-999,-99.99,,,-99.99,,2013-03-01 11:53:00,
2013-03-01 05:02:00,21.0,-99.9,-100.00,WNW,296,13.0,21.0,-999,-99.99,,,-99.99,,2013-03-01 12:02:00,
2013-03-01 05:11:00,21.0,-99.9,-100.00,WNW,298,14.0,19.0,-999,-99.99,,,-99.99,,2013-03-01 12:11:00,
2013-03-01 05:22:00,21.0,-99.9,-100.00,WNW,298,14.0,19.0,-999,-99.99,,,-99.99,,2013-03-01 12:22:00,
2013-03-01 05:33:00,21.0,-99.9,-100.00,WNW,298,14.0,19.0,-999,-99.99,,,-99.99,,2013-03-01 12:33:00,
2013-03-01 05:42:00,21.0,-99.9,-100.00,WNW,302,14.0,21.0,-999,-99.99,,,-99.99,,2013-03-01 12:42:00,
2013-03-01 05:52:00,21.0,-99.9,-100.00,WNW,302,14.0,21.0,-999,-99.99,,,-99.99,,2013-03-01 12:52:00,
2013-03-01 06:01:00,21.0,-99.9,-100.00,WNW,302,12.0,19.0,-999,-99.99,,,-99.99,,2013-03-01 13:01:00,
2013-03-01 06:12:00,21.0,-99.9,-100.00,NW,305,11.0,17.0,-999,-99.99,,,-99.99,,2013-03-01 13:12:00,
2013-03-01 06:22:00,21.0,-99.9,-100.00,NW,305,11.0,17.0,-999,-99.99,,,-99.99,,2013-03-01 13:22:00,
2013-03-01 06:32:00,21.0,-99.9,-100.00,NW,305,11.0,17.0,-999,-99.99,,,-99.99,,2013-03-01 13:32:00,
2013-03-01 06:42:00,21.0,-99.9,-100.00,NW,306,11.0,15.0,-999,-99.99,,,-99.99,,2013-03-01 13:42:00,
2013-03-01 06:52:00,21.0,-99.9,-100.00,NW,306,11.0,15.0,-999,-99.99,,,-99.99,,2013-03-01 13:52:00,
2013-03-01 07:02:00,21.0,-99.9,-100.00,WNW,299,12.0,18.0,-999,-99.99,,,-99.99,,2013-03-01 14:02:00,
2013-03-01 07:12:00,21.0,-99.9,-100.00,WNW,298,12.0,18.0,-999,-99.99,,,-99.99,,2013-03-01 14:12:00,
2013-03-01 07:22:00,21.0,-99.9,-100.00,WNW,298,12.0,18.0,-999,-99.99,,,-99.99,,2013-03-01 14:22:00,
2013-03-01 07:30:00,21.0,-99.9,-100.00,WNW,298,12.0,17.0,-999,-99.99,,,-99.99,,2013-03-01 14:30:00,
2013-03-01 07:32:00,21.0,-99.9,-100.00,WNW,298,12.0,18.0,-999,-99.99,,,-99.99,,2013-03-01 14:32:00,
2013-03-01 07:42:00,21.0,-99.9,-100.00,WNW,303,11.0,16.0,-999,-99.99,,,-99.99,,2013-03-01 14:42:00,
2013-03-01 07:52:00,21.0,-99.9,-100.00,WNW,303,11.0,16.0,-999,-99.99,,,-99.99,,2013-03-01 14:52:00,
2013-03-01 08:02:00,21.0,-99.9,-100.00,WNW,298,12.0,17.0,-999,-99.99,,,-99.99,,2013-03-01 15:02:00,
2013-03-01 08:11:00,21.0,-99.9,-100.00,WNW,298,12.0,17.0,-999,-99.99,,,-99.99,,2013-03-01 15:11:00,
2013-03-01 08:22:00,21.0,-99.9,-100.00,WNW,298,12.0,17.0,-999,-99.99,,,-99.99,,2013-03-01 15:22:00,
2013-03-01 08:42:00,22.0,-99.9,-100.00,NW,305,10.0,16.0,-999,-99.99,,,-99.99,,2013-03-01 15:42:00,
2013-03-01 08:52:00,22.0,-99.9,-100.00,NW,305,10.0,16.0,-999,-99.99,,,-99.99,,2013-03-01 15:52:00,
2013-03-01 09:01:00,22.0,-99.9,-100.00,WNW,303,9.0,14.0,-999,-99.99,,,-99.99,,2013-03-01 16:01:00,
2013-03-01 09:11:00,22.0,-99.9,-100.00,WNW,303,9.0,13.0,-999,-99.99,,,-99.99,,2013-03-01 16:11:00,
2013-03-01 09:22:00,22.0,-99.9,-100.00,WNW,303,9.0,13.0,-999,-99.99,,,-99.99,,2013-03-01 16:22:00,
2013-03-01 09:32:00,22.0,-99.9,-100.00,WNW,303,9.0,13.0,-999,-99.99,,,-99.99,,2013-03-01 16:32:00,
2013-03-01 09:42:00,23.0,-99.9,-100.00,NW,320,8.0,11.0,-999,-99.99,,,-99.99,,2013-03-01 16:42:00,
2013-03-01 09:52:00,23.0,-99.9,-100.00,NW,314,8.0,12.0,-999,-99.99,,,-99.99,,2013-03-01 16:52:00,
2013-03-01 10:01:00,23.0,-99.9,-100.00,NW,314,8.0,12.0,-999,-99.99,,,-99.99,,2013-03-01 17:01:00,
2013-03-01 10:11:00,23.0,-99.9,-100.00,NW,312,8.0,11.0,-999,-99.99,,,-99.99,,2013-03-01 17:11:00,
2013-03-01 10:21:00,23.0,-99.9,-100.00,NW,312,8.0,11.0,-999,-99.99,,,-99.99,,2013-03-01 17:21:00,
2013-03-01 10:32:00,23.0,-99.9,-100.00,NW,312,8.0,11.0,-999,-99.99,,,-99.99,,2013-03-01 17:32:00,
2013-03-01 10:42:00,24.0,-99.9,-100.00,NW,307,8.0,12.0,-999,-99.99,,,-99.99,,2013-03-01 17:42:00,
2013-03-01 10:52:00,24.0,-99.9,-100.00,NW,307,8.0,12.0,-999,-99.99,,,-99.99,,2013-03-01 17:52:00,
2013-03-01 11:02:00,24.0,-99.9,-100.00,NW,308,8.0,12.0,-999,-99.99,,,-99.99,,2013-03-01 18:02:00,
2013-03-01 11:12:00,25.0,-99.9,-100.00,NW,304,8.0,12.0,-999,-99.99,,,-99.99,,2013-03-01 18:12:00,
2013-03-01 11:22:00,25.0,-99.9,-100.00,NW,304,8.0,12.0,-999,-99.99,,,-99.99,,2013-03-01 18:22:00,
2013-03-01 11:32:00,25.0,-99.9,-100.00,NW,304,8.0,12.0,-999,-99.99,,,-99.99,,2013-03-01 18:32:00,
2013-03-01 11:42:00,26.0,-99.9,-100.00,NW,310,7.0,10.0,-999,-99.99,,,-99.99,,2013-03-01 18:42:00,
2013-03-01 11:52:00,26.0,-99.9,-100.00,NW,310,7.0,10.0,-999,-99.99,,,-99.99,,2013-03-01 18:52:00,
2013-03-01 12:02:00,26.0,-99.9,-100.00,NW,318,7.0,11.0,-999,-99.99,,,-99.99,,2013-03-01 19:02:00,
2013-03-01 12:11:00,27.0,-99.9,-100.00,NW,323,6.0,9.0,-999,-99.99,,,-99.99,,2013-03-01 19:11:00,
2013-03-01 12:22:00,27.0,-99.9,-100.00,NW,323,6.0,9.0,-999,-99.99,,,-99.99,,2013-03-01 19:22:00,
2013-03-01 12:32:00,27.0,-99.9,-100.00,NW,323,6.0,9.0,-999,-99.99,,,-99.99,,2013-03-01 19:32:00,
2013-03-01 12:42:00,27.0,-99.9,-100.00,NNW,327,5.0,7.0,-999,-99.99,,,-99.99,,2013-03-01 19:42:00,
2013-03-01 12:52:00,27.0,-99.9,-100.00,NNW,327,5.0,7.0,-999,-99.99,,,-99.99,,2013-03-01 19:52:00,
2013-03-01 13:01:00,27.0,-99.9,-100.00,NW,312,6.0,10.0,-999,-99.99,,,-99.99,,2013-03-01 20:01:00,
2013-03-01 13:11:00,27.0,-99.9,-100.00,WNW,300,6.0,11.0,-999,-99.99,,,-99.99,,2013-03-01 20:11:00,
2013-03-01 13:22:00,27.0,-99.9,-100.00,WNW,300,6.0,11.0,-999,-99.99,,,-99.99,,2013-03-01 20:22:00,
2013-03-01 13:32:00,27.0,-99.9,-100.00,WNW,300,6.0,11.0,-999,-99.99,,,-99.99,,2013-03-01 20:32:00,
2013-03-01 13:42:00,28.0,-99.9,-100.00,NW,309,5.0,9.0,-999,-99.99,,,-99.99,,2013-03-01 20:42:00,
2013-03-01 13:52:00,29.0,-99.9,-100.00,NW,321,6.0,9.0,-999,-99.99,,,-99.99,,2013-03-01 20:52:00,
2013-03-01 14:02:00,29.0,-99.9,-100.00,NW,321,6.0,9.0,-999,-99.99,,,-99.99,,2013-03-01 21:02:00,
2013-03-01 14:11:00,29.0,-99.9,-100.00,NW,317,4.0,7.0,-999,-99.99,,,-99.99,,2013-03-01 21:11:00,
2013-03-01 14:22:00,29.0,-99.9,-100.00,NW,317,4.0,7.0,-999,-99.99,,,-99.99,,2013-03-01 21:22:00,
2013-03-01 14:32:00,29.0,-99.9,-100.00,NW,317,4.0,7.0,-999,-99.99,,,-99.99,,2013-03-01 21:32:00,
2013-03-01 14:42:00,29.0,-99.9,-100.00,NW,316,3.0,6.0,-999,-99.99,,,-99.99,,2013-03-01 21:42:00,
2013-03-01 14:52:00,29.0,-99.9,-100.00,NW,316,3.0,6.0,-999,-99.99,,,-99.99,,2013-03-01 21:52:00,
2013-03-01 15:01:00,29.0,-99.9,-100.00,NW,316,3.0,6.0,-999,-99.99,,,-99.99,,2013-03-01 22:01:00,
2013-03-01 15:12:00,28.0,-99.9,-100.00,WNW,296,6.0,13.0,-999,-99.99,,,-99.99,,2013-03-01 22:12:00,
2013-03-01 15:22:00,28.0,-99.9,-100.00,WNW,296,6.0,13.0,-999,-99.99,,,-99.99,,2013-03-01 22:22:00,
2013-03-01 15:32:00,28.0,-99.9,-100.00,WNW,296,6.0,13.0,-999,-99.99,,,-99.99,,2013-03-01 22:32:00,
2013-03-01 15:42:00,28.0,-99.9,-100.00,NW,310,9.0,13.0,-999,-99.99,,,-99.99,,2013-03-01 22:42:00,
2013-03-01 15:52:00,27.0,-99.9,-100.00,NW,307,8.0,13.0,-999,-99.99,,,-99.99,,2013-03-01 22:52:00,
2013-03-01 16:01:00,27.0,-99.9,-100.00,NW,307,8.0,13.0,-999,-99.99,,,-99.99,,2013-03-01 23:01:00,
2013-03-01 16:11:00,27.0,-99.9,-100.00,NW,304,8.0,14.0,-999,-99.99,,,-99.99,,2013-03-01 23:11:00,
2013-03-01 16:22:00,27.0,-99.9,-100.00,NW,304,8.0,14.0,-999,-99.99,,,-99.99,,2013-03-01 23:22:00,
2013-03-01 16:32:00,27.0,-99.9,-100.00,NW,304,8.0,14.0,-999,-99.99,,,-99.99,,2013-03-01 23:32:00,
2013-03-01 16:42:00,26.0,-99.9,-100.00,WNW,295,8.0,14.0,-999,-99.99,,,-99.99,,2013-03-01 23:42:00,
2013-03-01 16:52:00,26.0,-99.9,-100.00,WNW,295,8.0,14.0,-999,-99.99,,,-99.99,,2013-03-01 23:52:00,
2013-03-01 17:02:00,26.0,-99.9,-100.00,WNW,288,10.0,15.0,-999,-99.99,,,-99.99,,2013-03-02 00:02:00,
2013-03-01 17:12:00,26.0,-99.9,-100.00,WNW,297,8.0,15.0,-999,-99.99,,,-99.99,,2013-03-02 00:12:00,
2013-03-01 17:22:00,26.0,-99.9,-100.00,WNW,297,8.0,15.0,-999,-99.99,,,-99.99,,2013-03-02 00:22:00,
2013-03-01 17:32:00,26.0,-99.9,-100.00,WNW,297,8.0,15.0,-999,-99.99,,,-99.99,,2013-03-02 00:32:00,
2013-03-01 17:42:00,26.0,-99.9,-100.00,WNW,300,11.0,19.0,-999,-99.99,,,-99.99,,2013-03-02 00:42:00,
2013-03-01 17:52:00,26.0,-99.9,-100.00,WNW,300,11.0,19.0,-999,-99.99,,,-99.99,,2013-03-02 00:52:00,
2013-03-01 18:01:00,25.0,-99.9,-100.00,WNW,303,11.0,18.0,-999,-99.99,,,-99.99,,2013-03-02 01:01:00,
2013-03-01 18:11:00,25.0,-99.9,-100.00,NW,305,9.0,16.0,-999,-99.99,,,-99.99,,2013-03-02 01:11:00,
2013-03-01 18:21:00,25.0,-99.9,-100.00,NW,305,9.0,16.0,-999,-99.99,,,-99.99,,2013-03-02 01:21:00,
2013-03-01 18:32:00,25.0,-99.9,-100.00,NW,305,9.0,16.0,-999,-99.99,,,-99.99,,2013-03-02 01:32:00,
2013-03-01 18:42:00,23.0,-99.9,-100.00,WNW,283,13.0,17.0,-999,-99.99,,,-99.99,,2013-03-02 01:42:00,
2013-03-01 19:01:00,22.0,-99.9,-100.00,WNW,288,10.0,14.0,-999,-99.99,,,-99.99,,2013-03-02 02:01:00,
2013-03-01 19:11:00,22.0,-99.9,-100.00,WNW,298,8.0,12.0,-999,-99.99,,,-99.99,,2013-03-02 02:11:00,
2013-03-01 19:22:00,22.0,-99.9,-100.00,WNW,298,8.0,12.0,-999,-99.99,,,-99.99,,2013-03-02 02:22:00,
2013-03-01 19:32:00,22.0,-99.9,-100.00,WNW,298,8.0,12.0,-999,-99.99,,,-99.99,,2013-03-02 02:32:00,
2013-03-01 19:42:00,21.0,-99.9,-100.00,NW,308,8.0,11.0,-999,-99.99,,,-99.99,,2013-03-02 02:42:00,
2013-03-01 19:52:00,21.0,-99.9,-100.00,NW,308,8.0,11.0,-999,-99.99,,,-99.99,,2013-03-02 02:52:00,
2013-03-01 20:02:00,22.0,-99.9,-100.00,WNW,300,5.0,9.0,-999,-99.99,,,-99.99,,2013-03-02 03:02:00,
2013-03-01 20:11:00,22.0,-99.9,-100.00,NW,306,6.0,10.0,-999,-99.99,,,-99.99,,2013-03-02 03:11:00,
2013-03-01 20:22:00,22.0,-99.9,-100.00,NW,306,6.0,10.0,-999,-99.99,,,-99.99,,2013-03-02 03:22:00,
2013-03-01 20:32:00,22.0,-99.9,-100.00,NW,306,6.0,10.0,-999,-99.99,,,-99.99,,2013-03-02 03:32:00,
2013-03-01 20:42:00,22.0,-99.9,-100.00,WNW,286,8.0,11.0,-999,-99.99,,,-99.99,,2013-03-02 03:42:00,
2013-03-01 20:53:00,22.0,-99.9,-100.00,WNW,286,8.0,11.0,-999,-99.99,,,-99.99,,2013-03-02 03:53:00,
2013-03-01 21:02:00,21.0,-99.9,-100.00,West,273,11.0,13.0,-999,-99.99,,,-99.99,,2013-03-02 04:02:00,
2013-03-01 21:12:00,21.0,-99.9,-100.00,West,272,14.0,16.0,-999,-99.99,,,-99.99,,2013-03-02 04:12:00,
2013-03-01 21:22:00,21.0,-99.9,-100.00,West,272,14.0,16.0,-999,-99.99,,,-99.99,,2013-03-02 04:22:00,
2013-03-01 21:32:00,21.0,-99.9,-100.00,West,272,14.0,16.0,-999,-99.99,,,-99.99,,2013-03-02 04:32:00,
2013-03-01 21:42:00,20.0,-99.9,-100.00,West,279,14.0,15.0,-999,-99.99,,,-99.99,,2013-03-02 04:42:00,
2013-03-01 21:52:00,20.0,-99.9,-100.00,WNW,285,14.0,16.0,-999,-99.99,,,-99.99,,2013-03-02 04:52:00,
2013-03-01 22:02:00,20.0,-99.9,-100.00,WNW,285,14.0,16.0,-999,-99.99,,,-99.99,,2013-03-02 05:02:00,
2013-03-01 22:12:00,20.0,-99.9,-100.00,WNW,290,12.0,15.0,-999,-99.99,,,-99.99,,2013-03-02 05:12:00,
2013-03-01 22:23:00,20.0,-99.9,-100.00,WNW,290,12.0,15.0,-999,-99.99,,,-99.99,,2013-03-02 05:23:00,
2013-03-01 22:32:00,20.0,-99.9,-100.00,WNW,290,12.0,15.0,-999,-99.99,,,-99.99,,2013-03-02 05:32:00,
2013-03-01 22:42:00,19.0,-99.9,-100.00,WNW,294,10.0,15.0,-999,-99.99,,,-99.99,,2013-03-02 05:42:00,
2013-03-01 22:52:00,19.0,-99.9,-100.00,WNW,294,10.0,15.0,-999,-99.99,,,-99.99,,2013-03-02 05:52:00,
2013-03-01 23:02:00,19.0,-99.9,-100.00,WNW,291,12.0,15.0,-999,-99.99,,,-99.99,,2013-03-02 06:02:00,
2013-03-01 23:11:00,20.0,-99.9,-100.00,WNW,286,12.0,15.0,-999,-99.99,,,-99.99,,2013-03-02 06:11:00,
2013-03-01 23:22:00,20.0,-99.9,-100.00,WNW,286,12.0,15.0,-999,-99.99,,,-99.99,,2013-03-02 06:22:00,
2013-03-01 23:32:00,20.0,-99.9,-100.00,WNW,286,12.0,15.0,-999,-99.99,,,-99.99,,2013-03-02 06:32:00,
2013-03-01 23:42:00,20.0,-99.9,-100.00,WNW,291,10.0,14.0,-999,-99.99,,,-99.99,,2013-03-02 06:42:00,
2013-03-01 23:52:00,20.0,-99.9,-100.00,WNW,291,10.0,14.0,-999,-99.99,,,-99.99,,2013-03-02 06:52:00,